Total_Precipitation_Accumulation
0.00 0.00 0.00 0.00 0.00 0.00 0.00 0.00 0.12 0.03 0.01 0.05 0.03 0.05 0.21 0.00 0.13 0.07 0.04 0.02 0.17 0.02 0.01 0.02 0.04 0.01 0.05 0.58 0.40 0.33 0.28 0.67 0.85 0.71 2.13 1.45 1.47 2.13 2.06 3.37 2.16 1.89 1.75 1.44 2.40 1.72 2.20 1.86 1.45 1.32 0.48 0.87 0.85 0.30 0.50 0.61 0.65 0.43 0.55 0.45 0.57 0.60 0.46 0.24 0.20 0.29 0.30 0.22 0.32 0.25 0.08 0.09 0.05 0.07 0.11 0.08 0.08 0.06 0.06 0.13 0.15 0.17 0.18 0.21 0.15 0.18 0.10 0.14 0.24 0.14 0.24 0.24 0.27 0.27 0.24 0.22 0.19
0.00 0.00 0.00 0.00 0.00 0.00 0.02 0.00 0.02 0.02 0.01 0.04 0.12 0.02 0.04 0.02 0.00 0.02 0.11 0.07 0.15 0.09 0.02 0.06 0.02 0.02 0.05 0.05 0.10 0.06 0.27 0.30 0.32 0.47 0.87 1.25 1.76 1.53 2.59 3.30 2.74 1.92 1.76 1.88 2.03 1.89 1.79 1.46 1.14 0.76 0.67 0.81 0.98 0.57 0.62 0.67 0.77 0.52 0.36 0.39 0.45 0.55 0.29 0.48 0.28 0.20 0.11 0.17 0.13 0.11 0.08 0.07 0.08 0.10 0.14 0.11 0.05 0.06 0.08 0.18 0.26 0.32 0.21 0.14 0.20 0.16 0.13 0.17 0.23 0.24 0.23 0.26 0.23 0.20 0.16 0.16 0.15
0.00 0.00 0.00 0.00 0.00 0.00 0.00 0.00 0.05 0.03 0.08 0.05 0.03 0.02 0.02 0.06 0.04 0.05 0.02 0.06 0.13 0.02 0.02 0.03 0.01 0.04 0.11 0.33 0.26 0.32 1.66 0.53 0.69 0.41 0.95 0.98 1.43 2.37 2.80 3.58 2.85 2.06 1.68 1.69 2.09 1.11 1.28 1.14 0.89 1.13 1.00 0.81 0.83 0.54 0.78 0.85 0.72 0.54 0.50 0.39 0.68 0.75 0.55 0.24 0.23 0.17 0.18 0.10 0.12 0.10 0.10 0.11 0.13 0.17 0.14 0.30 0.09 0.06 0.09 0.15 0.34 0.26 0.20 0.21 0.22 0.27 0.26 0.26 0.25 0.28 0.31 0.23 0.16 0.19 0.13 0.14 0.08
0.00 0.00 0.00 0.00 0.01 0.00 0.00 0.00 0.00 0.02 0.04 0.07 0.04 0.04 0.02 0.01 0.07 0.01 0.07 0.02 0.13 0.02 0.03 0.07 0.06 0.03 0.08 0.34 0.23 0.36 0.34 0.76 0.97 0.45 0.94 1.10 1.52 2.31 3.06 3.76 3.49 2.29 1.51 1.96 1.39 1.06 0.91 0.90 1.04 1.06 1.13 1.12 0.97 0.75 0.80 0.64 0.74 0.77 0.51 0.66 0.83 0.79 0.66 0.41 0.42 0.23 0.15 0.16 0.09 0.09 0.14 0.17 0.24 0.32 0.41 0.21 0.21 0.11 0.13 0.18 0.22 0.23 0.20 0.25 0.32 0.24 0.23 0.29 0.20 0.32 0.27 0.18 0.14 0.12 0.11 0.08 0.06
0.00 0.00 0.00 0.00 0.01 0.00 0.00 0.00 0.01 0.01 0.03 0.03 0.13 0.02 0.00 0.05 0.19 0.13 0.15 0.06 0.02 0.12 0.01 0.05 0.02 0.06 0.02 0.18 0.17 0.41 0.90 0.65 0.54 0.54 0.78 0.93 1.39 2.15 2.50 3.06 3.18 2.51 1.99 1.76 1.28 1.07 1.22 1.27 0.67 1.01 0.83 0.82 0.75 0.86 0.85 0.69 0.71 0.82 0.84 0.85 0.95 1.07 0.60 0.29 0.34 0.23 0.16 0.13 0.11 0.17 0.15 0.20 0.19 0.63 0.26 0.21 0.25 0.15 0.14 0.10 0.12 0.20 0.16 0.14 0.20 0.14 0.18 0.16 0.18 0.16 0.16 0.14 0.08 0.06 0.05 0.03 0.04
0.00 0.00 0.00 0.00 0.02 0.00 0.00 0.01 0.01 0.00 0.01 0.00 0.05 0.07 0.01 0.00 0.11 0.16 0.06 0.11 0.10 0.03 0.02 0.04 0.15 0.26 0.22 0.27 0.37 0.55 0.51 1.10 0.72 1.01 0.86 1.49 1.91 2.67 2.26 2.87 2.70 2.24 2.37 2.63 1.61 1.09 1.37 0.59 0.90 0.89 1.11 0.77 1.06 1.19 1.06 0.76 0.69 0.73 0.73 0.50 0.74 0.56 0.44 0.46 0.20 0.19 0.27 0.15 0.18 0.17 0.27 0.23 0.28 0.32 0.38 0.34 0.24 0.22 0.22 0.16 0.11 0.09 0.14 0.15 0.14 0.10 0.17 0.19 0.12 0.08 0.08 0.09 0.09 0.06 0.01 0.01 0.01
0.00 0.00 0.00 0.00 0.00 0.00 0.00 0.00 0.00 0.00 0.01 0.07 0.01 0.05 0.03 0.01 0.01 0.00 0.13 0.05 0.01 0.00 0.01 0.09 0.08 0.14 0.36 0.25 0.26 0.54 0.71 0.53 0.90 1.01 1.36 1.43 1.07 1.73 2.32 2.62 2.64 2.39 2.35 3.01 2.26 1.47 1.32 1.00 0.68 1.05 1.28 0.83 0.93 0.84 0.95 0.54 0.58 0.71 0.79 0.46 0.32 0.55 0.62 0.29 0.14 0.21 0.18 0.23 0.19 0.25 0.36 0.23 0.21 0.23 0.29 0.32 0.28 0.26 0.25 0.08 0.09 0.10 0.13 0.12 0.09 0.11 0.14 0.11 0.11 0.12 0.08 0.09 0.06 0.01 0.01 0.02 0.03
0.00 0.00 0.00 0.00 0.00 0.00 0.00 0.00 0.00 0.00 0.03 0.00 0.00 0.01 0.00 0.00 0.01 0.04 0.17 0.01 0.22 0.08 0.09 0.05 0.02 0.18 1.40 0.10 0.86 0.72 0.61 0.92 1.04 0.82 1.01 1.57 1.35 1.95 2.42 2.68 2.41 3.39 2.44 2.61 2.03 1.58 2.16 0.79 0.65 0.59 0.73 0.83 0.93 1.09 0.83 0.67 0.60 0.82 0.67 0.63 0.51 0.44 0.38 0.21 0.16 0.16 0.20 0.29 0.26 0.27 0.69 0.46 0.23 0.32 0.24 0.36 0.32 0.25 0.19 0.14 0.12 0.16 0.09 0.08 0.05 0.08 0.11 0.09 0.08 0.10 0.04 0.05 0.02 0.00 0.02 0.03 0.01
0.00 0.00 0.00 0.00 0.00 0.00 0.00 0.00 0.01 0.02 0.01 0.00 0.00 0.00 0.00 0.00 0.00 0.00 0.01 0.01 0.00 0.03 0.08 0.11 0.13 0.28 1.21 0.41 0.69 0.91 0.83 0.79 1.25 1.08 1.47 1.46 2.19 2.23 2.79 2.58 2.60 2.23 2.80 2.65 1.90 1.93 1.41 0.63 0.52 0.65 0.71 0.69 0.85 1.16 0.99 0.74 0.84 0.83 1.09 1.08 0.50 0.25 0.29 0.23 0.22 0.19 0.23 0.26 0.29 0.41 0.63 0.46 0.19 0.15 0.21 0.26 0.53 0.24 0.12 0.15 0.12 0.15 0.05 0.05 0.05 0.09 0.05 0.05 0.04 0.05 0.02 0.02 0.01 0.01 0.01 0.00 0.00
0.00 0.00 0.00 0.00 0.00 0.01 0.00 0.00 0.03 0.12 0.05 0.00 0.00 0.00 0.00 0.00 0.08 0.00 0.09 0.19 0.05 0.20 0.07 0.00 0.02 0.27 0.30 1.04 0.85 1.04 1.17 0.70 0.91 0.85 1.33 1.94 2.40 2.90 2.45 3.42 3.14 3.04 3.81 3.33 1.97 1.48 1.70 1.84 0.55 0.67 0.57 0.69 0.83 1.36 0.92 1.14 1.23 0.95 1.16 0.98 0.40 0.26 0.31 0.47 0.29 0.35 0.32 0.24 0.38 0.57 0.51 0.32 0.24 0.14 0.18 0.18 0.22 0.23 0.08 0.08 0.06 0.10 0.10 0.05 0.05 0.06 0.03 0.03 0.03 0.03 0.03 0.01 0.01 0.02 0.00 0.00 0.00
0.00 0.00 0.00 0.00 0.00 0.00 0.02 0.01 0.05 0.06 0.02 0.00 0.00 0.00 0.00 0.00 0.01 0.02 0.07 0.06 0.04 0.09 0.05 0.06 0.07 0.11 0.17 0.79 1.20 1.43 1.35 0.96 0.72 1.08 1.63 1.60 3.29 3.11 4.48 3.19 3.33 3.23 3.52 3.57 2.54 1.78 1.43 1.64 1.38 0.65 0.76 0.97 0.99 1.09 1.19 1.33 1.15 1.01 1.08 0.80 0.40 0.22 0.19 0.54 0.49 0.39 0.39 0.30 0.39 0.49 0.61 0.45 0.19 0.16 0.21 0.19 0.19 0.10 0.05 0.06 0.06 0.11 0.08 0.05 0.04 0.01 0.01 0.01 0.02 0.01 0.02 0.01 0.02 0.01 0.01 0.01 0.00
0.00 0.00 0.00 0.00 0.00 0.00 0.01 0.02 0.00 0.02 0.00 0.00 0.08 0.01 0.01 0.01 0.00 0.02 0.06 0.20 0.24 0.06 0.11 0.06 0.34 0.14 0.42 0.66 1.17 2.35 1.64 1.22 2.00 1.31 1.79 2.34 2.38 2.37 3.61 2.31 2.64 3.87 3.29 3.89 2.55 1.69 1.53 1.42 1.67 1.73 1.19 1.09 1.36 1.29 1.32 1.45 1.12 1.23 0.89 0.68 0.39 0.24 0.18 0.40 0.47 0.41 0.45 0.73 0.43 0.35 0.44 0.48 0.31 0.21 0.15 0.12 0.13 0.12 0.09 0.07 0.12 0.12 0.07 0.04 0.05 0.02 0.02 0.02 0.03 0.01 0.00 0.01 0.01 0.01 0.01 0.01 0.01
0.00 0.00 0.00 0.00 0.00 0.00 0.00 0.00 0.03 0.00 0.01 0.01 0.07 0.03 0.01 0.01 0.04 0.02 0.18 0.15 0.18 0.10 0.34 0.14 0.27 0.42 1.05 0.81 1.81 1.40 1.52 1.65 1.68 1.58 1.54 1.97 2.64 3.00 2.87 3.56 4.83 3.82 4.49 3.48 1.92 1.35 1.08 1.13 1.13 1.67 1.71 1.52 1.61 1.51 0.88 1.35 1.16 0.95 0.91 0.70 0.59 0.45 0.28 0.40 0.41 0.33 0.70 0.55 0.36 0.40 0.46 0.62 0.35 0.31 0.15 0.22 0.09 0.17 0.09 0.11 0.08 0.07 0.04 0.02 0.02 0.03 0.01 0.01 0.01 0.00 0.01 0.01 0.00 0.00 0.00 0.00 0.01
0.00 0.00 0.00 0.00 0.00 0.00 0.00 0.02 0.00 0.01 0.07 0.16 0.08 0.07 0.00 0.08 0.15 0.21 0.22 0.27 0.31 0.25 0.08 0.06 0.04 0.10 0.85 0.76 1.71 1.75 1.86 1.83 1.73 2.25 1.75 2.21 2.26 2.87 3.68 2.87 4.45 3.42 3.71 2.83 2.44 1.53 1.29 1.04 1.31 1.04 1.43 1.47 2.03 1.72 1.21 0.96 1.02 0.78 0.88 0.85 0.78 0.62 0.79 0.51 0.41 0.41 0.42 0.42 0.55 0.51 0.42 0.38 0.31 0.26 0.28 0.23 0.18 0.32 0.11 0.07 0.07 0.05 0.04 0.02 0.01 0.02 0.04 0.03 0.03 0.04 0.07 0.01 0.00 0.00 0.00 0.00 0.00
0.00 0.00 0.00 0.00 0.01 0.00 0.00 0.01 0.04 0.05 0.33 0.07 0.03 0.03 0.07 0.02 0.02 0.04 0.13 0.25 0.28 0.06 0.03 0.06 0.03 0.16 2.19 0.74 1.91 1.27 1.39 2.02 2.72 2.90 2.99 2.71 2.54 3.99 4.89 4.74 5.30 4.05 3.02 2.88 2.43 2.68 1.86 1.55 1.41 1.45 1.79 1.72 1.55 1.96 2.51 2.13 1.57 1.89 1.45 0.79 1.07 1.13 0.98 1.31 1.02 0.60 0.39 0.45 0.50 0.63 0.43 0.43 0.32 0.31 0.27 0.26 0.21 0.35 0.29 0.09 0.11 0.05 0.04 0.03 0.02 0.01 0.05 0.05 0.08 0.02 0.00 0.01 0.00 0.00 0.00 0.00 0.00
0.00 0.00 0.00 0.00 0.01 0.00 0.02 0.01 0.01 0.06 0.24 0.06 0.03 0.04 0.07 0.06 0.01 0.07 0.10 0.06 0.15 0.09 0.05 0.37 0.04 0.29 0.59 0.50 0.86 0.84 1.44 1.94 3.00 2.75 2.98 2.80 3.57 4.11 3.47 3.19 3.16 2.93 2.71 2.67 2.94 2.98 1.64 1.79 1.60 1.61 1.34 1.65 2.06 2.12 1.99 1.54 2.34 2.66 1.95 1.15 1.45 1.39 1.85 1.74 1.14 1.00 1.06 0.98 0.96 0.79 0.89 0.62 0.60 0.75 0.43 0.55 0.26 0.23 0.24 0.35 0.11 0.05 0.04 0.02 0.03 0.02 0.02 0.05 0.00 0.02 0.01 0.00 0.00 0.00 0.00 0.00 0.00
0.00 0.00 0.01 0.00 0.01 0.00 0.00 0.01 0.01 0.23 0.11 0.05 0.03 0.05 0.04 0.35 0.08 0.12 0.05 0.09 0.14 0.28 0.32 0.22 0.30 0.12 0.80 0.78 1.13 1.28 2.21 2.48 2.09 2.45 2.32 2.11 3.18 3.28 2.61 2.48 2.68 3.13 2.71 3.13 3.31 2.85 2.39 1.96 2.39 2.39 1.70 2.05 2.57 2.23 2.17 1.66 1.28 1.74 1.42 2.14 1.41 1.52 1.12 1.35 1.05 0.76 0.71 0.66 0.94 0.89 0.96 1.03 1.38 1.22 1.33 1.04 0.20 0.54 0.18 0.14 0.14 0.11 0.05 0.01 0.02 0.02 0.00 0.02 0.06 0.03 0.02 0.00 0.00 0.00 0.00 0.00 0.01
0.00 0.00 0.00 0.01 0.02 0.01 0.00 0.01 0.02 0.03 0.06 0.05 0.04 0.03 0.10 0.15 0.13 0.16 0.06 0.16 0.13 0.24 0.21 0.27 0.23 0.64 0.81 1.22 1.31 1.61 1.60 1.90 1.80 1.57 2.21 1.86 1.62 2.35 2.69 2.99 3.15 2.87 2.80 2.65 2.65 2.99 2.38 2.98 2.62 2.85 3.19 2.82 2.39 2.66 2.74 1.80 2.20 2.10 2.35 1.78 2.52 1.86 1.32 0.93 1.06 0.98 1.35 1.15 0.59 0.97 1.50 1.63 1.84 1.62 1.48 1.53 1.04 0.46 0.42 0.10 0.11 0.08 0.07 0.02 0.01 0.01 0.01 0.01 0.05 0.05 0.05 0.01 0.00 0.00 0.00 0.04 0.04
0.00 0.00 0.00 0.01 0.00 0.01 0.01 0.01 0.00 0.04 0.13 0.03 0.08 0.01 0.17 0.15 0.04 0.03 0.18 0.39 0.16 0.33 0.34 0.65 0.55 0.93 1.33 1.49 1.80 1.31 1.41 1.68 1.70 1.96 1.51 1.44 1.72 1.32 2.34 2.37 2.38 2.23 2.35 2.21 2.39 3.12 3.35 2.82 2.52 2.96 2.93 2.95 3.35 2.78 2.75 2.11 1.76 1.88 2.10 2.28 2.24 2.03 1.98 0.86 1.23 1.86 1.68 1.71 1.58 1.28 1.99 2.15 2.02 2.08 2.00 1.37 1.33 0.42 0.50 0.08 0.09 0.07 0.05 0.03 0.02 0.02 0.04 0.01 0.01 0.06 0.05 0.03 0.00 0.00 0.09 0.18 0.14
0.00 0.00 0.01 0.01 0.00 0.00 0.00 0.01 0.02 0.00 0.06 0.11 0.11 0.07 0.05 0.02 0.12 0.01 0.17 0.26 0.12 0.29 0.64 1.16 0.87 1.11 1.39 1.76 1.50 1.34 1.22 1.23 1.69 1.97 2.28 2.06 1.64 1.98 2.00 2.23 2.38 2.34 1.92 1.98 2.05 2.23 3.15 3.15 3.14 4.26 2.63 2.22 2.17 2.21 3.08 2.45 1.99 2.37 2.42 2.01 1.47 1.31 1.66 1.46 1.89 1.54 1.84 2.02 1.72 1.73 1.65 2.52 2.41 2.04 0.83 1.02 0.70 0.82 0.41 0.16 0.11 0.06 0.04 0.01 0.02 0.04 0.03 0.02 0.03 0.03 0.13 0.05 0.01 0.08 0.26 0.23 0.26
0.00 0.00 0.04 0.02 0.00 0.02 0.01 0.01 0.01 0.01 0.05 0.04 0.10 0.13 0.14 0.04 0.13 0.18 0.11 0.19 0.64 0.65 0.54 0.63 0.79 0.92 0.96 0.99 1.61 2.14 2.41 2.43 2.78 4.59 3.03 1.94 2.81 3.18 2.72 2.24 3.24 3.23 3.22 2.96 2.23 2.66 2.28 2.41 2.44 3.48 3.67 4.12 3.27 3.14 3.40 3.00 2.48 3.52 3.29 2.39 2.21 1.82 1.92 1.53 1.56 2.01 2.55 2.63 2.52 1.98 1.54 2.00 2.41 2.29 1.30 1.05 1.04 1.14 1.11 0.52 0.48 0.42 0.37 0.38 0.05 0.28 0.22 0.26 0.16 0.37 0.14 0.04 0.24 0.16 0.22 0.35 0.27
0.00 0.00 0.00 0.00 0.00 0.07 0.00 0.00 0.00 0.03 0.01 0.06 0.07 0.15 0.10 0.09 0.02 0.21 0.08 0.30 0.64 0.54 1.35 0.52 0.82 0.82 1.10 1.23 2.12 1.62 2.19 2.67 3.91 5.25 3.59 4.18 5.44 3.60 2.71 2.78 3.05 2.90 2.46 2.05 1.86 2.39 2.22 2.11 2.64 2.75 2.98 2.79 2.23 2.76 2.83 2.90 3.20 3.85 3.20 3.23 2.67 2.60 2.07 2.44 2.34 2.45 2.33 2.34 2.10 1.60 1.91 2.12 2.02 1.43 1.98 1.32 1.33 1.00 0.93 0.63 0.72 0.61 0.53 0.85 0.26 0.73 0.63 0.49 0.41 0.27 0.28 0.45 0.39 0.61 0.22 0.15 0.16
0.05 0.00 0.00 0.00 0.00 0.05 0.00 0.01 0.00 0.00 0.00 0.02 0.03 0.06 0.02 0.06 0.09 0.08 0.03 0.06 0.37 0.65 1.14 0.83 0.75 0.93 1.32 1.82 2.00 2.06 2.67 3.52 5.20 3.92 2.92 4.36 3.62 2.70 2.06 2.68 2.99 3.32 3.40 3.58 3.03 2.25 2.28 2.52 3.22 3.70 2.78 2.31 2.57 2.64 3.19 2.69 2.60 3.56 3.01 2.69 2.47 2.61 2.58 2.64 3.07 2.32 2.50 2.82 2.64 2.41 2.35 2.27 1.95 1.70 1.31 1.23 1.26 1.52 1.64 1.49 1.14 1.15 0.86 1.01 0.74 1.07 0.84 0.63 0.83 0.86 0.90 0.48 0.43 0.32 0.37 0.47 0.17
0.00 0.03 0.00 0.00 0.00 0.00 0.00 0.00 0.01 0.04 0.02 0.10 0.07 0.07 0.06 0.09 0.30 0.09 0.09 0.29 0.30 0.90 1.15 1.14 1.35 1.78 1.70 2.35 2.02 2.31 2.56 4.27 4.81 4.94 5.00 3.65 3.19 2.57 2.29 3.14 2.89 2.90 3.31 2.74 2.83 3.20 2.78 2.70 2.61 3.11 3.05 3.02 2.69 3.22 3.03 2.88 2.70 2.28 2.01 2.76 2.69 2.23 2.08 2.40 2.69 2.39 2.84 2.26 1.48 2.13 1.90 1.95 1.58 1.56 1.34 1.30 0.98 1.30 1.62 1.06 1.13 1.37 1.28 1.40 1.14 0.98 0.88 1.16 0.88 0.77 0.51 0.56 0.37 0.50 0.63 0.29 0.58
0.09 0.30 0.00 0.00 0.00 0.00 0.00 0.05 0.01 0.03 0.03 0.04 0.06 0.20 0.18 0.02 0.11 0.15 0.20 0.36 0.44 0.62 0.72 1.18 1.53 2.12 1.96 1.31 2.13 2.77 3.47 4.09 2.87 3.03 3.51 4.45 3.79 2.51 2.82 3.64 2.74 2.33 2.37 2.57 3.67 3.96 2.53 3.09 3.04 2.96 3.12 3.90 3.27 3.11 3.04 2.78 2.52 2.82 2.41 2.52 2.78 2.78 2.19 1.98 2.92 2.89 1.94 1.75 1.64 1.59 1.87 2.02 2.11 1.34 1.51 1.54 1.79 1.24 1.04 0.85 0.71 1.13 1.28 1.36 1.04 0.93 1.17 0.95 0.76 0.98 0.86 0.40 0.25 0.49 0.41 0.42 0.52
0.00 0.00 0.00 0.00 0.00 0.00 0.01 0.01 0.02 0.03 0.09 0.01 0.14 0.14 0.05 0.07 0.09 0.11 0.19 0.24 0.39 0.40 0.58 0.60 1.23 1.64 1.64 1.38 1.67 2.25 2.05 1.55 1.88 2.04 2.65 2.90 3.16 2.83 2.78 2.63 2.40 2.26 2.30 2.73 3.39 4.08 3.52 3.57 3.47 3.16 3.11 3.07 3.59 3.34 3.23 1.97 2.39 2.38 2.14 1.82 2.77 1.94 1.90 1.89 1.90 2.11 1.85 1.45 1.35 1.31 1.74 2.19 1.80 1.93 1.86 2.03 1.45 1.80 0.90 1.02 0.90 0.84 0.51 0.68 0.57 0.75 0.88 1.39 1.10 0.91 0.98 0.44 0.62 0.81 0.46 0.38 0.12
0.00 0.00 0.00 0.00 0.00 0.00 0.01 0.05 0.04 0.09 0.11 0.03 0.24 0.21 0.19 0.04 0.11 0.48 0.41 0.20 0.24 0.33 0.69 1.30 1.70 1.57 1.46 1.15 1.55 2.68 1.91 1.56 2.01 2.57 2.01 2.42 2.54 2.76 2.46 3.02 2.06 1.93 2.34 3.12 2.45 2.67 2.99 3.29 4.34 3.83 2.70 3.65 3.67 3.11 2.47 2.18 2.27 2.29 2.08 2.06 1.68 1.44 1.17 1.24 1.26 1.20 1.45 1.68 1.10 1.15 1.24 1.73 2.20 2.25 1.84 2.00 1.52 1.78 1.53 1.44 1.32 2.04 1.48 0.91 0.58 0.50 0.61 0.98 0.99 0.87 1.10 0.65 0.60 0.78 0.52 0.35 0.24
0.01 0.00 0.01 0.01 0.01 0.00 0.00 0.02 0.05 0.07 0.07 0.01 0.17 0.30 0.12 0.09 0.13 0.18 0.29 0.49 0.40 0.34 1.05 1.45 1.33 1.51 2.02 1.18 1.95 2.17 2.38 2.48 2.85 2.58 1.85 1.79 2.39 2.05 1.89 2.45 2.15 1.79 1.76 2.09 2.51 2.59 2.61 2.78 2.40 2.28 2.62 3.00 2.44 3.11 2.65 2.24 1.61 1.79 1.96 1.50 1.47 1.28 0.93 0.71 0.81 0.74 1.07 1.53 1.53 1.48 1.58 1.36 1.44 2.06 2.33 1.92 2.02 1.72 1.86 1.59 2.03 1.92 1.46 1.15 0.86 1.27 0.76 0.87 0.82 0.56 0.84 0.69 1.05 0.92 0.76 0.45 0.17
0.00 0.01 0.16 0.04 0.02 0.04 0.02 0.08 0.02 0.03 0.07 0.10 0.02 0.02 0.30 0.11 0.32 0.16 0.34 0.60 0.73 0.85 1.22 1.49 1.53 2.05 1.73 2.28 2.54 2.45 3.20 2.44 2.63 3.18 2.69 3.15 2.99 2.87 2.83 2.64 2.48 2.27 1.92 1.84 2.43 2.78 2.66 2.15 2.17 2.14 2.15 2.86 2.35 2.21 1.95 2.20 1.89 1.47 1.33 1.43 1.52 0.87 0.86 0.68 1.22 1.05 1.00 1.69 1.56 1.69 1.67 1.16 1.37 1.85 2.42 1.61 1.56 1.45 1.81 1.94 1.56 1.51 2.02 1.64 0.98 0.91 0.81 0.75 0.90 0.45 0.51 0.34 0.32 0.26 0.35 0.29 0.26
0.03 0.01 0.14 0.18 0.14 0.13 0.04 0.02 0.02 0.03 0.14 0.06 0.03 0.30 0.29 0.22 0.16 0.13 0.19 0.48 0.56 0.95 1.71 2.24 2.51 2.24 3.22 2.83 1.76 2.23 2.37 3.92 4.37 3.41 3.12 3.02 3.06 2.79 2.26 2.46 2.88 2.22 1.93 1.81 2.15 2.09 1.72 2.52 2.50 2.28 2.54 3.19 2.35 2.59 2.29 1.99 2.28 2.63 2.10 1.72 1.19 0.84 0.84 0.91 1.07 1.51 1.55 1.61 1.61 1.47 1.72 1.21 1.32 1.67 1.71 1.60 1.69 1.48 1.63 1.68 1.94 1.44 2.10 1.48 1.19 1.13 0.66 0.72 0.58 0.64 0.80 0.50 0.39 0.65 0.76 0.51 0.44
0.17 0.01 0.01 0.28 0.17 0.13 0.02 0.01 0.06 0.05 0.13 0.05 0.02 0.32 0.38 0.40 0.39 0.15 0.23 0.40 1.11 1.71 1.76 2.67 2.85 1.84 2.03 2.08 1.88 1.85 2.60 2.88 2.87 2.96 2.50 2.42 3.09 2.45 2.58 2.34 2.70 1.79 2.00 2.01 2.76 2.30 1.77 2.85 3.50 3.94 3.15 3.35 2.33 2.54 1.53 1.84 2.90 2.43 2.49 2.05 1.57 1.03 1.22 1.22 1.76 1.92 1.08 1.11 1.33 1.85 2.03 1.77 2.15 1.84 2.15 2.28 2.16 1.96 1.70 1.68 1.59 1.64 1.63 1.95 1.33 0.98 1.23 1.21 1.04 1.17 1.03 0.64 0.25 0.65 0.64 0.51 0.52
0.06 0.25 0.18 0.14 0.26 0.36 0.29 0.11 0.02 0.16 0.10 0.00 0.11 0.26 0.26 0.16 0.23 0.25 0.43 0.88 1.59 1.16 1.39 2.21 2.22 1.86 1.43 1.65 1.50 1.62 1.32 1.53 1.80 2.05 2.44 3.07 1.97 1.74 2.00 2.47 2.27 1.82 2.64 2.86 2.95 3.52 3.34 3.81 3.51 2.58 2.66 2.75 2.16 1.45 2.09 2.75 2.55 2.12 2.06 2.28 1.70 1.56 1.35 1.57 1.49 1.53 1.40 1.09 1.07 1.32 1.71 2.20 2.11 1.80 2.11 2.14 2.04 1.58 1.93 1.81 1.42 1.78 1.54 2.16 1.79 1.78 1.83 1.28 1.05 1.31 1.36 0.85 0.47 0.43 0.54 0.57 1.01
0.06 0.18 0.31 0.26 0.15 0.24 0.06 0.04 0.01 0.07 0.04 0.00 0.03 0.42 0.20 0.20 0.34 0.40 0.94 1.54 1.01 0.68 1.59 1.45 1.91 1.87 1.94 1.42 2.44 1.37 1.45 0.91 0.79 1.08 0.97 1.89 2.33 2.25 2.79 3.20 2.10 2.03 1.99 2.27 1.89 2.26 2.39 4.11 4.57 3.43 3.26 3.02 2.00 2.04 2.85 2.85 2.27 1.91 2.13 2.11 2.29 1.53 1.24 1.23 1.26 1.66 1.59 1.53 1.78 1.57 2.77 2.38 1.81 1.86 1.77 1.99 2.10 1.83 1.57 1.53 1.95 1.65 2.25 1.92 2.06 1.84 1.54 2.03 1.45 1.12 0.81 0.86 0.99 0.94 0.68 0.87 1.30
0.06 0.07 0.23 0.12 0.25 0.23 0.08 0.04 0.03 0.00 0.08 0.18 0.03 0.13 0.16 0.14 0.06 0.37 1.51 1.24 1.00 0.70 0.84 1.51 1.15 0.89 0.48 0.98 0.80 1.24 0.84 0.72 0.90 0.86 1.31 1.55 1.41 2.12 3.42 2.23 3.01 2.21 2.01 2.74 3.05 3.47 3.32 3.81 2.72 3.23 3.92 3.76 3.25 2.89 3.26 2.72 2.59 1.97 2.08 1.99 2.01 1.81 1.39 1.36 1.68 1.79 1.98 2.17 3.11 2.39 1.80 1.73 1.43 2.07 1.61 1.76 1.95 1.65 1.71 1.82 1.88 2.09 2.16 2.22 2.58 1.69 2.53 2.29 1.70 1.02 1.04 0.82 1.17 1.10 1.00 1.37 1.10
0.10 0.06 0.22 0.15 0.06 0.03 0.21 0.11 0.03 0.03 0.03 0.20 0.09 0.05 0.09 0.19 0.07 0.06 0.09 0.68 0.70 1.04 1.07 1.70 1.50 0.92 0.64 0.78 0.86 0.69 0.84 0.97 0.68 1.30 1.80 1.87 1.75 1.74 1.69 1.62 2.37 2.07 2.07 2.45 5.18 5.89 3.12 3.82 4.71 4.25 4.06 3.74 3.68 3.97 3.53 3.00 2.67 1.96 1.91 2.33 2.01 2.23 2.03 1.24 1.75 2.08 2.18 3.22 2.74 3.01 3.31 2.46 1.69 1.39 1.39 2.26 2.12 1.91 1.75 1.76 2.04 2.37 2.29 1.99 1.48 1.83 2.06 1.40 1.31 1.51 0.99 0.79 0.84 0.82 1.21 1.12 1.08
0.04 0.04 0.06 0.10 0.24 0.08 0.16 0.02 0.05 0.00 0.04 0.08 0.09 0.27 0.18 0.10 0.06 0.05 0.40 0.50 0.53 1.22 1.46 1.34 1.25 1.72 1.21 1.03 0.70 0.77 0.81 1.01 1.54 1.22 1.56 1.36 1.51 1.24 1.10 1.35 1.64 1.96 2.48 3.58 4.89 3.62 3.14 3.18 3.11 3.95 3.67 4.63 4.06 2.61 1.94 1.94 1.99 1.89 2.14 2.05 1.65 1.89 1.59 1.11 1.74 2.91 2.23 2.39 2.16 2.38 2.75 2.58 1.84 1.43 1.58 2.16 2.61 2.24 2.39 2.08 2.37 2.48 2.15 1.80 1.73 1.31 1.20 1.11 1.50 1.77 1.66 1.01 0.82 0.70 0.71 1.18 1.20
0.00 0.01 0.03 0.14 0.22 0.07 0.04 0.04 0.05 0.00 0.04 0.06 0.04 0.10 0.04 0.06 0.05 0.05 0.09 0.12 1.07 1.42 2.11 2.48 2.51 1.33 0.61 1.05 0.50 0.86 0.91 0.91 0.98 0.97 1.17 1.67 1.88 2.11 1.24 0.76 0.77 1.03 1.76 3.10 4.04 4.05 3.32 3.82 3.60 2.63 2.93 3.19 2.47 2.53 2.00 2.08 1.62 1.88 1.76 1.56 1.48 1.89 1.72 1.91 1.59 2.88 1.78 1.75 2.21 1.98 1.63 1.84 2.82 1.96 2.00 1.94 1.57 1.56 2.08 1.79 2.08 2.22 1.50 2.00 1.34 1.24 1.09 0.99 1.40 1.81 1.86 2.01 1.72 1.20 1.68 1.16 2.77
0.00 0.01 0.01 0.05 0.07 0.14 0.06 0.09 0.00 0.01 0.08 0.20 0.01 0.06 0.05 0.07 0.07 0.07 0.16 0.09 0.42 0.41 0.55 0.33 0.81 1.06 0.99 0.93 0.81 0.44 1.12 1.44 1.01 0.64 0.81 0.82 0.98 1.09 1.47 1.42 1.15 1.35 2.16 3.60 3.30 3.66 3.40 3.65 4.74 3.63 3.33 3.37 2.56 2.29 1.77 2.22 1.60 1.75 1.83 2.15 1.87 1.43 1.87 2.11 2.03 1.34 1.89 1.98 2.16 1.52 1.90 1.70 2.03 1.89 1.44 1.91 1.28 1.17 1.55 1.17 1.42 1.94 1.40 1.08 1.02 1.03 1.46 1.39 1.23 1.84 1.68 1.59 1.42 1.46 2.51 1.41 2.21
0.00 0.02 0.01 0.10 0.12 0.07 0.00 0.00 0.00 0.00 0.06 0.06 0.03 0.11 0.14 0.10 0.11 0.10 0.08 0.06 0.11 0.07 0.09 0.12 0.40 0.59 0.64 0.58 0.56 1.27 1.57 1.04 0.76 0.47 0.53 0.87 0.83 0.84 1.23 1.29 1.42 1.93 2.87 2.36 2.77 3.58 3.81 3.13 3.88 3.95 4.83 3.86 2.24 1.68 1.55 1.32 1.33 2.51 2.89 2.17 1.35 2.06 2.32 1.95 1.89 2.29 2.46 2.46 3.08 2.50 2.20 1.52 1.81 2.03 1.54 1.32 1.43 1.24 1.45 1.42 1.44 1.77 1.47 1.30 1.30 1.16 1.25 1.67 1.23 1.50 2.10 1.41 2.22 2.24 2.58 2.06 1.80
0.00 0.03 0.02 0.12 0.10 0.12 0.27 0.10 0.01 0.03 0.01 0.05 0.03 0.16 0.16 0.06 0.06 0.07 0.14 0.13 0.14 0.12 0.13 0.25 0.80 0.92 0.56 0.79 0.60 0.94 0.72 0.53 1.30 0.94 0.69 0.83 1.21 1.61 1.05 1.56 1.49 2.39 3.36 3.08 2.41 2.68 2.95 3.20 3.49 2.50 3.55 2.46 2.35 2.05 1.86 2.09 1.06 2.34 1.68 1.80 3.16 2.12 2.11 2.50 3.29 3.04 2.39 2.03 2.26 2.12 2.17 1.23 1.03 1.13 1.23 1.00 1.13 1.48 1.13 1.19 1.22 1.37 1.29 1.09 1.19 1.30 0.96 1.46 1.48 1.44 1.51 1.45 1.36 1.95 1.19 1.66 1.38
0.02 0.01 0.01 0.03 0.03 0.09 0.01 0.15 0.02 0.01 0.01 0.00 0.02 0.11 0.29 0.22 0.30 0.22 0.18 0.41 0.79 1.07 0.92 0.50 0.55 0.44 1.26 1.60 1.30 0.90 1.18 0.67 0.91 1.19 1.28 1.40 1.79 2.18 2.10 2.12 3.01 3.45 2.80 2.67 2.67 2.75 3.04 3.62 3.30 2.17 2.73 2.54 1.77 1.97 2.02 1.95 1.90 1.85 1.75 3.09 2.73 2.77 2.88 2.84 3.04 2.61 1.98 2.19 1.90 1.89 1.74 1.02 1.18 1.35 1.15 1.14 0.91 1.04 0.75 0.90 1.19 1.12 1.30 1.02 0.85 1.17 1.05 1.05 1.49 2.13 1.68 1.63 1.25 1.21 1.96 1.03 1.21
0.07 0.10 0.03 0.00 0.01 0.01 0.01 0.00 0.06 0.18 0.16 0.05 0.05 0.33 0.60 0.46 0.17 0.17 0.28 0.34 1.07 1.77 1.35 0.44 0.82 0.95 1.28 1.67 1.14 1.87 1.84 1.07 1.13 0.96 0.82 0.62 0.96 1.13 2.39 3.88 2.86 2.32 2.06 3.44 2.97 3.78 3.72 3.36 2.26 2.13 3.09 2.86 1.96 1.63 1.56 2.14 1.81 2.50 2.75 2.24 2.93 2.07 2.14 2.26 2.36 1.83 1.69 1.55 1.50 1.23 1.35 1.29 1.58 1.26 1.24 1.01 1.16 1.07 0.98 1.02 1.25 1.08 1.32 0.88 1.10 1.22 0.99 1.89 1.51 1.73 1.60 1.19 1.69 1.50 1.66 1.19 1.55
0.03 0.16 0.00 0.01 0.01 0.00 0.01 0.01 0.04 0.19 0.46 0.43 0.02 0.27 0.74 0.34 0.52 0.50 0.42 0.45 0.35 0.45 0.74 0.42 0.29 0.87 1.06 1.14 1.00 1.47 1.17 0.94 1.14 1.28 1.20 0.97 1.40 1.78 3.19 3.02 2.17 1.96 2.23 1.52 2.79 4.02 4.15 3.82 2.11 1.71 2.08 2.71 2.44 2.46 3.08 2.91 2.17 2.26 2.21 2.58 2.56 2.20 2.30 2.04 1.61 1.36 1.44 1.47 1.20 1.30 1.72 1.69 1.58 1.22 0.96 0.63 0.74 0.78 0.85 0.73 0.82 0.96 0.75 1.24 1.14 1.40 1.31 1.49 1.24 1.38 1.30 1.92 1.34 1.18 1.52 1.79 1.17
0.27 0.02 0.01 0.00 0.00 0.01 0.03 0.02 0.05 0.14 0.01 0.05 0.02 0.09 0.50 0.65 0.62 0.45 0.40 0.24 0.49 0.47 0.32 0.69 1.09 0.79 1.45 1.34 1.04 1.17 0.94 1.07 0.94 1.32 1.61 1.35 1.58 1.86 2.15 2.16 2.10 2.52 2.71 2.09 4.14 4.46 2.17 1.93 1.70 1.48 2.15 2.98 2.78 2.36 3.52 2.40 2.32 3.25 3.05 3.00 2.26 1.80 1.42 1.69 1.32 1.03 1.31 2.04 1.68 1.32 1.57 1.27 0.98 0.88 0.69 0.78 0.58 0.57 0.84 1.07 0.88 1.11 0.68 0.67 1.33 1.91 1.74 1.39 1.28 1.25 1.75 1.74 0.93 1.26 1.44 1.53 0.77
0.09 0.00 0.00 0.00 0.00 0.02 0.02 0.03 0.09 0.06 0.08 0.60 0.12 0.19 0.29 0.41 0.43 0.82 0.84 0.64 0.94 0.74 0.48 0.71 0.59 0.61 1.25 0.87 0.67 0.77 0.67 0.51 1.02 1.23 1.33 1.34 2.01 1.83 1.37 1.57 1.40 1.85 2.33 2.97 2.63 3.35 2.95 2.66 1.74 1.66 2.98 2.91 2.35 1.51 1.46 1.97 2.22 2.91 2.51 2.57 2.62 1.93 1.70 1.74 1.49 1.75 1.42 1.83 0.99 1.08 0.98 0.95 0.93 0.84 1.12 0.85 1.13 1.11 0.96 0.86 0.94 0.75 1.04 0.96 1.16 1.56 1.31 1.50 1.45 1.76 1.43 1.14 1.09 1.60 1.30 1.82 1.74
0.03 0.00 0.00 0.01 0.00 0.00 0.02 0.06 0.12 0.20 0.07 0.25 0.18 0.20 0.21 0.45 0.53 0.87 1.33 0.68 0.84 1.00 0.94 0.35 0.28 0.29 0.43 0.51 0.61 0.52 0.70 0.68 0.48 1.07 0.60 1.21 1.74 2.64 2.16 2.21 1.77 2.32 2.11 2.34 2.93 5.07 2.86 2.51 3.57 2.89 3.27 2.72 2.12 1.44 1.86 2.53 2.43 2.32 2.54 1.74 1.75 1.64 1.43 1.54 1.28 1.04 0.90 0.94 1.11 1.18 1.17 1.32 1.11 0.96 0.86 0.91 1.08 1.08 0.77 0.55 0.61 0.62 1.00 1.09 1.76 1.02 1.18 1.15 1.08 1.25 1.31 1.19 1.18 1.66 1.88 1.72 1.46
0.00 0.00 0.01 0.01 0.02 0.03 0.04 0.03 0.15 0.21 0.08 0.33 0.15 0.10 0.13 0.68 0.46 0.36 0.79 0.43 0.23 0.30 0.46 0.36 0.40 1.09 0.81 0.77 0.70 0.47 0.61 0.64 0.61 1.11 1.22 0.90 1.20 1.40 1.62 1.63 2.03 2.38 2.78 2.51 3.27 3.91 2.00 2.20 2.69 3.18 3.54 2.92 2.45 3.11 2.75 2.95 2.65 3.69 1.47 1.39 1.44 0.99 0.88 0.91 1.62 0.93 0.75 1.63 1.31 1.21 1.91 1.91 1.79 1.26 1.10 0.99 0.61 0.70 0.70 0.59 0.49 0.74 1.00 1.07 1.27 1.19 1.13 0.97 1.06 1.42 1.89 1.93 2.67 1.67 1.30 1.36 1.62
0.01 0.03 0.04 0.02 0.08 0.06 0.05 0.17 0.09 0.31 0.33 0.26 0.10 0.11 0.07 0.49 0.53 0.29 0.20 0.17 0.16 0.17 0.25 0.26 0.34 0.33 0.53 0.79 0.35 0.37 0.54 0.69 0.81 0.82 0.96 1.18 2.37 2.32 2.52 3.01 3.19 3.58 2.65 2.19 1.73 1.72 1.58 1.34 2.39 2.45 3.57 2.85 3.18 4.07 3.59 3.89 3.25 1.85 1.89 2.13 1.38 0.91 0.78 0.67 0.94 0.70 0.63 0.77 0.50 0.87 1.25 2.54 2.04 1.88 1.07 0.92 0.54 0.33 0.56 0.78 0.71 0.94 0.98 0.98 0.97 0.73 1.36 1.60 1.75 1.63 1.80 1.74 1.88 1.29 1.92 1.64 1.53
0.04 0.04 0.04 0.36 0.63 0.29 0.48 0.28 0.38 0.22 0.24 0.24 0.09 0.08 0.22 0.21 0.42 0.34 0.25 0.26 0.17 0.08 0.12 0.24 0.30 0.42 0.50 0.66 0.41 0.57 0.55 0.97 0.94 1.53 3.29 2.44 1.97 1.96 1.98 1.88 1.87 1.73 2.41 1.98 1.68 1.33 0.88 1.88 2.11 2.92 4.16 3.28 3.21 3.10 3.14 2.94 1.90 1.69 1.24 0.87 0.77 0.59 0.80 0.96 1.27 0.68 0.84 0.98 0.90 1.11 1.07 1.40 1.26 1.04 1.16 0.82 0.66 0.64 0.76 0.86 0.85 0.77 0.89 0.68 1.31 1.31 2.02 1.72 2.09 1.96 1.70 1.64 1.73 0.97 1.14 1.56 1.63
0.05 0.04 0.17 0.19 0.57 0.32 0.11 0.34 0.16 0.30 0.13 0.06 0.11 0.08 0.25 0.31 0.56 0.25 0.55 0.23 0.23 0.18 0.15 0.51 0.84 0.67 0.32 0.56 0.57 0.85 1.51 1.81 1.98 4.37 3.08 2.87 2.18 0.99 1.70 1.95 2.69 2.64 2.16 1.65 1.47 1.07 1.41 2.36 3.23 3.04 3.62 2.30 2.25 2.64 2.32 1.54 1.23 1.18 1.25 1.00 0.75 0.86 1.21 1.36 1.28 1.04 1.42 1.52 1.33 1.48 1.22 0.93 1.12 0.88 0.93 0.96 0.87 1.10 1.16 1.06 1.35 1.07 1.30 1.28 1.31 0.90 1.10 1.82 2.48 1.92 1.88 1.51 1.06 0.94 1.89 1.78 1.70
0.02 0.01 0.04 0.55 0.37 0.40 0.28 0.24 0.29 0.22 0.46 0.25 0.14 0.09 0.17 0.35 2.19 0.48 0.29 0.30 0.09 0.12 0.18 0.23 0.27 0.54 0.89 0.65 0.70 1.19 2.98 3.24 3.74 2.13 1.13 0.79 0.78 0.98 1.03 1.68 1.75 1.56 1.69 1.24 0.93 0.76 1.01 2.76 2.93 3.63 5.23 2.64 3.02 1.71 1.78 1.38 1.36 1.29 1.47 1.59 2.01 0.99 1.23 1.02 0.60 0.76 1.02 1.27 1.62 1.40 1.63 1.46 1.05 1.04 1.05 1.04 0.92 0.90 0.71 1.39 1.20 1.87 1.04 0.91 0.90 1.19 1.13 1.90 2.04 1.73 1.42 1.43 1.68 1.41 1.59 1.76 1.66
0.02 0.04 0.05 0.13 0.26 0.12 0.48 0.58 0.22 0.42 0.42 0.18 0.14 0.19 0.58 1.09 1.30 0.51 0.26 0.29 0.14 0.13 0.28 0.35 0.44 0.45 0.54 1.42 2.03 2.32 2.09 2.08 1.44 1.00 0.54 0.71 0.78 0.59 0.39 0.68 0.92 1.42 1.57 2.57 1.67 1.98 2.21 3.36 2.59 3.31 3.96 2.37 2.16 1.88 2.12 2.00 1.32 1.27 1.84 1.18 1.53 1.39 0.70 1.25 0.70 1.01 0.89 1.06 1.16 0.98 0.76 0.87 1.30 2.12 2.00 1.19 1.33 0.88 1.09 1.37 2.24 1.92 1.79 1.97 1.73 1.88 2.15 2.27 1.77 1.97 1.70 1.75 1.04 1.05 1.71 2.09 1.33
0.21 0.03 0.16 0.09 0.06 0.09 0.15 0.12 0.11 0.10 0.15 0.17 0.03 0.24 0.45 0.45 1.13 0.61 0.49 0.34 0.23 0.12 0.26 0.19 0.47 0.82 0.93 1.72 1.74 1.48 1.39 1.45 1.15 1.76 1.78 1.30 0.81 0.65 0.57 0.99 1.05 0.70 1.71 2.01 2.37 3.23 2.99 2.41 2.02 2.25 4.09 3.62 3.44 2.79 2.76 2.25 1.38 1.01 1.43 1.66 1.37 0.78 0.72 1.05 1.46 0.90 0.62 0.50 0.76 0.96 0.79 0.62 1.19 1.64 0.98 0.87 1.33 2.40 2.06 2.31 2.12 2.51 2.48 2.17 1.86 1.84 2.18 1.98 2.61 2.50 1.84 1.50 1.24 1.75 1.78 1.43 1.33
0.11 0.18 0.11 0.12 0.14 0.22 0.24 0.59 0.37 0.17 0.38 0.16 0.09 0.21 0.57 0.21 1.18 0.86 0.69 0.73 0.38 0.33 0.32 0.25 0.37 0.70 0.98 1.39 0.95 0.73 1.42 1.35 1.17 1.69 1.86 1.97 1.59 1.47 1.65 1.24 0.90 0.87 1.62 1.55 1.62 2.65 2.76 3.38 2.91 3.62 5.05 2.42 3.82 3.36 2.44 1.94 1.80 1.33 1.70 2.21 1.63 1.38 1.15 1.15 1.09 0.49 0.31 0.51 0.60 0.98 1.09 0.83 0.85 1.41 1.50 1.35 1.76 2.35 3.20 3.22 2.91 2.64 2.47 2.54 2.57 2.22 2.38 3.30 3.27 2.57 1.92 1.74 1.60 1.99 1.65 1.15 1.24
0.12 0.18 0.10 0.17 0.52 0.45 0.20 0.23 0.45 0.37 0.32 0.36 0.25 0.17 0.24 0.34 1.06 0.69 0.82 0.44 0.49 0.47 0.27 0.24 0.37 0.73 1.07 1.28 1.20 0.93 1.17 1.02 0.98 1.11 1.44 1.59 0.85 0.72 0.60 0.77 1.00 1.15 0.87 0.71 0.88 0.68 0.99 1.83 3.43 4.61 5.01 4.44 3.20 1.90 1.71 1.53 1.29 1.72 1.20 1.62 1.84 1.26 0.91 1.04 0.83 0.72 0.50 0.48 0.39 0.57 0.71 1.15 0.87 1.46 1.26 1.16 2.26 3.20 2.58 1.80 2.25 2.45 2.71 2.07 2.93 2.38 1.80 2.75 2.66 2.20 1.79 1.52 2.09 1.96 1.74 1.46 1.31
0.04 0.01 0.08 0.17 0.17 0.38 0.58 0.45 0.69 0.64 0.63 0.34 0.53 0.27 0.66 0.49 0.65 0.33 0.41 0.29 0.41 0.43 0.45 0.40 0.53 0.47 0.52 0.49 0.51 0.58 0.76 0.91 1.05 1.15 1.05 1.51 1.54 1.80 1.61 1.00 1.04 0.91 0.83 0.74 0.56 0.69 0.60 1.15 2.03 2.44 2.32 3.13 2.77 2.34 1.53 0.72 1.20 0.81 0.95 1.26 0.95 0.91 1.11 1.34 0.98 0.92 0.87 0.81 0.66 0.58 0.77 1.05 1.86 1.66 1.59 1.99 1.56 1.34 1.25 1.20 1.25 1.42 1.23 1.80 2.23 2.05 1.10 1.23 1.11 1.26 1.27 0.91 1.30 1.56 1.73 1.06 1.19
0.19 0.11 0.17 0.26 0.24 0.32 0.20 0.63 0.33 0.57 0.54 0.52 0.45 0.51 0.90 0.79 0.36 0.41 0.30 0.58 0.49 0.35 0.33 0.44 0.57 0.99 0.80 1.27 1.20 0.94 0.51 0.49 0.81 0.99 1.02 0.78 0.70 0.97 0.69 0.83 0.82 1.24 0.84 0.68 0.67 0.80 0.74 0.89 0.94 1.05 1.01 0.87 1.05 2.70 2.45 1.70 1.05 1.48 0.94 1.01 1.50 1.80 1.66 1.39 1.27 1.07 1.21 0.80 0.92 0.72 0.92 1.75 1.39 0.92 0.94 1.39 1.25 0.89 0.98 1.25 1.14 1.43 1.41 1.18 1.16 1.14 1.30 1.11 1.43 1.01 1.00 1.19 1.17 1.30 1.20 1.01 1.04
0.39 0.26 0.41 0.40 0.59 0.91 0.86 0.72 0.17 0.27 0.42 0.49 0.37 0.50 0.75 0.69 0.26 0.79 0.66 0.40 0.86 0.66 0.71 0.72 0.82 0.72 0.97 1.05 0.77 0.76 1.10 0.88 0.65 0.85 0.65 0.86 1.45 0.98 0.69 0.61 0.72 0.59 0.77 0.85 0.60 0.74 0.72 0.65 0.75 0.86 1.44 0.99 0.81 1.69 2.39 2.45 2.69 2.02 2.24 2.55 2.47 2.25 2.34 1.81 1.15 0.96 1.03 1.27 1.68 1.97 1.21 1.19 1.53 1.98 1.90 1.95 1.57 1.66 1.59 0.78 0.78 1.00 1.17 1.20 1.09 1.06 1.50 1.21 0.93 1.52 1.66 1.61 2.14 1.75 1.12 1.47 1.80